Hourly Data Report for December 11, 2010

IQALUIT CLIMATE
NUNAVUT

63°44'50.000" N
68°32'40.000" W
33.50 m
2402592
71321
XFB

Download Data

Hourly Data (December 2010)
Hourly Data Report for December 11, 2010
TIME
LST
Temp Definition
°C
Dew Point Definition
°C
Rel Hum Definition
%
Precip. Amount Definition
mm

Wind Dir Definition
10's deg

Wind Spd Definition
km/h
Visibility Definition
km
Stn Press Definition
kPa
Hmdx Definition


Wind Chill Definition


Weather Definition


00:00 -14.5 -17.6 77   5 7   100.59   -19 LegendNANA
01:00 -14.2 -17.3 77   7 7   100.60   -19 LegendNANA
02:00 -13.1 -16.0 79   11 4   100.58   -16 LegendNANA
03:00 -12.9 -15.7 79   10 13   100.56   -20 LegendNANA
04:00 -11.2 -16.3 66   17 20   100.54   -19 LegendNANA
05:00 -11.0 -16.2 65   17 17   100.56   -18 LegendNANA
06:00 -10.7 -15.3 69   16 19   100.54   -19 LegendNANA
07:00 -10.2 -15.3 66   16 17   100.53   -17 LegendNANA
08:00 -10.8 -12.9 84   10 20   100.53   -19 LegendNANA
09:00 -10.7 -12.0 90   10 17   100.47   -18 LegendNANA
10:00 -10.7 -12.3 88   10 20   100.42   -19 LegendNANA
11:00 -10.2 -12.2 85   11 24   100.33   -19 LegendNANA
12:00 -9.8 -12.4 81   9 32   100.27   -20 LegendNANA
13:00 -9.8 -12.0 84   10 22   100.18   -18 LegendNANA
14:00 -9.1 -11.5 83   10 28   100.10   -18 LegendNANA
15:00 -8.8 -10.5 87   10 32   100.06   -18 LegendNANA
16:00 -8.6 -9.8 91   11 32   100.05   -18 LegendNANA
17:00 -7.9 -8.7 94   11 32   99.98   -17 LegendNANA
18:00 -7.3 -7.8 96   11 32   99.94   -16 LegendNANA
19:00 -7.2 -7.3 99   13 33   99.96   -16 LegendNANA
20:00 -5.9 -6.9 93   16 22   99.93   -13 LegendNANA
21:00 -6.6 -9.5 80   20 15   99.95   -13 LegendNANA
22:00 -6.8 -11.2 71   18 13   99.94   -12 LegendNANA
23:00 -6.9 -11.1 72   21 20   99.94   -14 LegendNANA

Notes on Data Quality.

Legend

  • E = Estimated
  • M = Missing
  • NA = Not Available*
  • [empty] = Indicates an unobserved value
Date modified: